Location: Newark
(44.4156°N, 12.1972°E)
Time: 02:28:07
(UTC+00:00)

STARLINK-1122 - Pass Details

Date: 03 February 2020
Orbit: 348 x 351 km, 53.0° (Epoch: 23 February)

Event Time Altitude Azimuth Distance (km) Brightness Sun altitude
Rises 16:41:15 0° 301° (WNW) 2,176 7.3 -4.0°
Reaches altitude 10° 16:43:17 10° 297° (WNW) 1,329 6.3 -4.3°
Maximum altitude 16:46:12 57° 218° (SW) 423 3.4 -4.8°
Drops below altitude 10° 16:49:06 10° 138° (SE) 1,321 5.3 -5.3°
Enters shadow 16:53:21 -7° 133° (SE) 3,091 7.1 -6.0°
